GW0787 Weather Reports


Display with metric or nautical units.
time (UTC)temp
F
wind
direction
speed
MPH
gust
MPH
rain 1hr
in
rain 24hr
in
rain mn
in
humidity
%
barometer
mb
20260901054536 54 218 0.0 0.0 0.00 0.00 0.00 75 1010.4
20260901053038 55 218 0.0 0.0 0.00 0.00 0.00 75 1010.5
20260901051537 55 218 0.0 0.0 0.00 0.00 0.00 75 1010.6
20260901050034 56 218 0.0 0.0 0.00 0.00 0.00 74 1010.6
20260901044533 57 218 0.0 0.0 0.00 0.00 0.00 70 1010.5
20260901043042 58 218 0.0 1.0 0.00 0.00 0.00 69 1010.5
20260901041532 59 218 0.0 1.0 0.00 0.00 0.00 69 1010.4
20260901040036 60 218 0.0 0.0 0.00 0.00 0.00 69 1010.3
20260901034533 61 218 0.0 0.0 0.00 0.00 0.00 67 1010.2
20260901033048 62 218 0.0 2.0 0.00 0.00 0.00 66 1009.9
20260901031531 63 218 0.0 2.0 0.00 0.00 0.00 65 1009.7
20260901030030 65 218 0.0 2.0 0.00 0.00 0.00 63 1009.6
20260901024529 66 218 0.0 3.0 0.00 0.00 0.00 62 1009.5
20260901023033 68 218 0.0 0.0 0.00 0.00 0.00 58 1009.4
20260901021528 70 218 0.0 2.0 0.00 0.00 0.00 54 1009.6
20260901020027 73 218 0.0 3.0 0.00 0.00 0.00 48 1009.7
20260901014525 76 221 0.0 2.0 0.00 0.00 0.00 43 1009.7
20260901013025 77 210 0.0 5.0 0.00 0.00 0.00 38 1009.7
20260901011524 80 221 3.0 7.0 0.00 0.00 0.00 35 1009.8
20260901010024 81 234 2.0 8.0 0.00 0.00 0.00 32 1009.8
20260901004520 82 237 2.0 9.0 0.00 0.00 0.00 32 1009.9
20260901003018 82 239 3.0 8.0 0.00 0.00 0.00 33 1010.0
20260901001517 81 211 1.0 8.0 0.00 0.00 0.00 32 1010.1
20260901000009 81 220 5.0 13.0 0.00 0.00 0.00 31 1010.2
20260831234522 81 234 4.0 11.0 0.00 0.00 0.00 33 1010.4
20260831233005 82 191 3.0 7.0 0.00 0.00 0.00 33 1010.5
20260831231502 81 234 4.0 9.0 0.00 0.00 0.00 32 1010.8
20260831230106 81 188 3.0 9.0 0.00 0.00 0.00 32 1011.0
20260831224557 82 245 1.0 9.0 0.00 0.00 0.00 35 1011.2
20260831223055 82 224 1.0 6.0 0.00 0.00 0.00 34 1011.4
20260831221550 80 306 1.0 6.0 0.00 0.00 0.00 33 1011.5
20260831220056 80 336 1.0 10.0 0.00 0.00 0.00 35 1011.8
20260831214548 79 222 2.0 9.0 0.00 0.00 0.00 33 1012.0
20260831213046 79 232 3.0 7.0 0.00 0.00 0.00 37 1012.3
20260831211539 77 224 4.0 7.0 0.00 0.00 0.00 38 1012.6
20260831210039 76 214 0.0 8.0 0.00 0.00 0.00 39 1012.9
20260831204545 76 156 2.0 7.0 0.00 0.00 0.00 39 1013.1
20260831203052 75 64 1.0 8.0 0.00 0.00 0.00 38 1013.3
20260831201528 75 156 2.0 6.0 0.00 0.00 0.00 41 1013.6
20260831200035 74 228 4.0 9.0 0.00 0.00 0.00 41 1013.9
20260831194523 72 209 2.0 5.0 0.00 0.00 0.00 43 1014.2
20260831193018 72 213 1.0 5.0 0.00 0.00 0.00 46 1014.4
20260831191513 70 114 0.0 4.0 0.00 0.00 0.00 48 1014.8
20260831190010 69 210 2.0 4.0 0.00 0.00 0.00 51 1015.1
20260831184504 67 235 1.0 4.0 0.00 0.00 0.00 55 1015.4
20260831183001 66 190 0.0 3.0 0.00 0.00 0.00 57 1015.6
20260831181602 64 108 1.0 3.0 0.00 0.00 0.00 62 1015.9
20260831180051 62 317 0.0 2.0 0.00 0.00 0.00 66 1016.1
20260831174551 61 316 0.0 3.0 0.00 0.00 0.00 66 1016.3
20260831173043 59 116 1.0 3.0 0.00 0.00 0.00 71 1016.5
20260831171538 57 68 0.0 3.0 0.00 0.00 0.00 75 1016.5
20260831170038 55 161 0.0 2.0 0.00 0.00 0.00 78 1016.6
20260831164529 53 176 0.0 3.0 0.00 0.00 0.00 82 1016.8
20260831163027 51 187 0.0 1.0 0.00 0.00 0.00 87 1017.0
20260831161521 48 188 0.0 0.0 0.00 0.00 0.00 90 1017.3
20260831160035 47 188 0.0 1.0 0.00 0.00 0.00 90 1017.3
20260831154513 45 188 0.0 0.0 0.00 0.00 0.00 90 1017.4
20260831153032 44 187 0.0 0.0 0.00 0.00 0.00 90 1017.5
20260831151513 43 188 0.0 0.0 0.00 0.00 0.00 91 1017.5
20260831150012 42 188 0.0 0.0 0.00 0.00 0.00 90 1017.5
20260831144512 42 187 0.0 0.0 0.00 0.00 0.00 91 1017.5
20260831143010 41 188 0.0 0.0 0.00 0.00 0.00 90 1017.5
20260831141517 41 188 0.0 0.0 0.00 0.00 0.00 90 1017.3
20260831140010 41 187 0.0 0.0 0.00 0.00 0.00 90 1017.2
20260831134508 40 188 0.0 0.0 0.00 0.00 0.00 90 1017.0
20260831133006 40 187 0.0 0.0 0.00 0.00 0.00 90 1016.9
20260831131509 41 188 0.0 0.0 0.00 0.00 0.00 90 1016.9
20260831130003 41 188 0.0 0.0 0.00 0.00 0.00 90 1017.0
20260831124502 41 187 0.0 0.0 0.00 0.00 0.00 90 1016.9
20260831123100 41 188 0.0 0.0 0.00 0.00 0.00 90 1017.0
20260831121559 41 188 0.0 0.0 0.00 0.00 0.00 90 1017.0
20260831120143 42 188 0.0 0.0 0.00 0.00 0.00 89 1017.0
20260831114555 42 187 0.0 0.0 0.00 0.00 0.00 90 1017.1
20260831113057 42 188 0.0 0.0 0.00 0.00 0.00 89 1017.0
20260831111558 42 188 0.0 0.0 0.00 0.00 0.00 89 1017.0
20260831110051 43 188 0.0 0.0 0.00 0.00 0.00 89 1017.0
20260831104549 43 188 0.0 0.0 0.00 0.00 0.00 89 1017.0
20260831103050 43 188 0.0 0.0 0.00 0.00 0.00 89 1017.0
20260831101546 43 187 0.0 0.0 0.00 0.00 0.00 89 1017.1
20260831100050 44 187 0.0 0.0 0.00 0.00 0.00 89 1017.2
20260831094552 44 188 0.0 0.0 0.00 0.00 0.00 88 1017.3
20260831093041 44 188 0.0 0.0 0.00 0.00 0.00 88 1017.4
20260831091538 44 188 0.0 0.0 0.00 0.00 0.00 88 1017.3
20260831090037 45 188 0.0 0.0 0.00 0.00 0.00 88 1017.3
20260831084540 45 188 0.0 0.0 0.00 0.00 0.00 87 1017.3
20260831083034 45 188 0.0 0.0 0.00 0.00 0.00 87 1017.2
20260831081542 46 188 0.0 0.0 0.00 0.00 0.00 87 1017.2
20260831080034 46 187 0.0 0.0 0.00 0.00 0.00 87 1017.1
20260831074528 46 188 0.0 0.0 0.00 0.00 0.00 87 1017.2
20260831073029 46 188 0.0 0.0 0.00 0.00 0.00 87 1017.2
20260831071529 47 188 0.0 0.0 0.00 0.00 0.00 86 1017.4
20260831070028 47 188 0.0 1.0 0.00 0.00 0.00 86 1017.4
20260831064522 47 188 0.0 1.0 0.00 0.00 0.00 86 1017.3
20260831063025 48 188 0.0 2.0 0.00 0.00 0.00 86 1017.4
20260831061521 48 229 0.0 2.0 0.00 0.00 0.00 85 1017.4
20260831060020 49 230 0.0 1.0 0.00 0.00 0.00 84 1017.6